CW5306 Weather Reports


Display with metric or nautical units.
time (UTC)temp
F
wind
direction
speed
MPH
gust
MPH
rain 1hr
in
rain 24hr
in
rain mn
in
humidity
%
barometer
mb
20260902153734 76 104 4.0 21.0 0.04 0.04 0.04 92 1014.3
20260902153728 76 72 10.0 21.0 0.03 0.05 0.05 92 1014.4
20260902152730 76 47 14.0 26.0 0.03 0.04 0.04 92 1014.0
20260902152230 76 99 11.0 26.0 0.02 0.02 0.02 91 1014.2
20260902152003 76 60 15.0 23.0 0.01 0.02 0.02 91 1014.0
20260902151229 76 77 8.0 19.0 0.01 0.02 0.02 91 1013.8
20260902150729 76 60 8.0 19.0 0.02 0.02 0.02 92 1013.9
20260902150500 76 77 11.0 16.0 0.02 0.02 0.02 92 1013.6
20260902145732 76 98 6.0 16.0 0.02 0.02 0.02 91 1014.0
20260902145500 76 81 10.0 24.0 0.02 0.02 0.02 91 1014.1
20260902144729 76 84 9.0 24.0 0.02 0.02 0.02 91 1014.0
20260902144459 76 55 11.0 24.0 0.02 0.02 0.02 91 1014.0
20260902144336 76 128 11.0 20.0 0.02 0.02 0.02 91 1013.8
20260902143500 76 113 4.0 20.0 0.00 0.01 0.00 91 1014.0
20260902142729 76 58 8.0 24.0 0.00 0.01 0.00 91 1014.0
20260902142240 76 133 9.0 20.0 0.00 0.01 0.00 90 1014.1
20260902142234 76 106 10.0 24.0 0.00 0.01 0.00 91 1014.1
20260902141818 76 133 9.0 20.0 0.00 0.01 0.00 90 1014.1
20260902141500 76 66 6.0 21.0 0.00 0.01 0.00 90 1013.9
20260902140732 76 62 8.0 28.0 0.00 0.00 0.00 89 1014.1
20260902140230 77 99 14.0 28.0 0.00 0.00 0.00 88 1014.1
20260902135729 77 58 11.0 24.0 0.00 0.00 0.00 88 1014.2
20260902135229 78 61 9.0 24.0 0.00 0.00 0.00 87 1014.3
20260902134729 78 101 7.0 19.0 0.00 0.00 0.00 87 1014.2
20260902134459 78 26 5.0 19.0 0.00 0.00 0.00 86 1014.0
20260902133959 78 128 11.0 23.0 0.00 0.00 0.00 87 1014.0
20260902133500 78 82 10.0 23.0 0.00 0.00 0.00 87 1014.0
20260902132729 78 46 13.0 20.0 0.00 0.00 0.00 87 1013.9
20260902132228 78 56 10.0 19.0 0.00 0.00 0.00 87 1014.0
20260902131948 78 58 8.0 19.0 0.00 0.00 0.00 87 1013.9
20260902131217 78 79 6.0 16.0 0.00 0.00 0.00 87 1014.0
20260902130717 78 83 5.0 16.0 0.00 0.00 0.00 87 1014.0
20260902130217 78 90 8.0 20.0 0.00 0.00 0.00 87 1014.1
20260902125948 78 73 12.0 20.0 0.00 0.00 0.00 87 1014.2
20260902125219 78 78 11.0 21.0 0.00 0.00 0.00 86 1014.1
20260902124718 78 73 4.0 21.0 0.00 0.00 0.00 86 1014.2
20260902124217 78 85 11.0 14.0 0.00 0.00 0.00 86 1014.3
20260902123705 78 30 4.0 17.0 0.00 0.00 0.00 86 1014.5
20260902123204 78 103 8.0 17.0 0.00 0.00 0.00 86 1014.4
20260902122705 78 97 11.0 17.0 0.00 0.00 0.00 87 1014.3
20260902122204 78 30 6.0 15.0 0.00 0.00 0.00 87 1014.4
20260902121704 78 47 7.0 16.0 0.00 0.00 0.00 87 1014.5
20260902121205 78 97 9.0 17.0 0.00 0.00 0.00 87 1014.7
20260902120936 78 79 9.0 20.0 0.00 0.00 0.00 87 1014.6
20260902120205 78 95 8.0 20.0 0.00 0.00 0.00 86 1014.5
20260902115705 78 73 8.0 21.0 0.00 0.00 0.00 87 1014.7
20260902115437 78 73 6.0 21.0 0.00 0.00 0.00 87 1014.5
20260902114937 78 69 13.0 19.0 0.00 0.00 0.00 87 1014.7
20260902114204 77 79 1.0 16.0 0.00 0.00 0.00 87 1014.7
20260902113704 77 89 11.0 16.0 0.00 0.00 0.00 88 1014.6
20260902113205 77 70 7.0 15.0 0.00 0.00 0.00 88 1014.9
20260902112704 77 84 9.0 17.0 0.00 0.00 0.00 88 1014.9
20260902112435 76 109 9.0 21.0 0.00 0.00 0.00 87 1014.7
20260902111704 77 119 13.0 21.0 0.00 0.00 0.00 87 1014.9
20260902111205 77 88 7.0 25.0 0.00 0.00 0.00 86 1015.1
20260902110705 78 95 8.0 25.0 0.00 0.00 0.00 85 1015.1
20260902110204 79 94 10.0 17.0 0.00 0.00 0.00 85 1015.0
20260902105705 79 76 6.0 17.0 0.00 0.00 0.00 85 1015.1
20260902105204 78 58 10.0 17.0 0.00 0.00 0.00 84 1015.1
20260902104936 78 94 12.0 17.0 0.00 0.00 0.00 83 1015.2
20260902104205 78 128 7.0 17.0 0.00 0.00 0.00 83 1015.1
20260902103704 78 85 8.0 21.0 0.00 0.00 0.00 84 1015.0
20260902103204 78 69 9.0 21.0 0.00 0.00 0.00 83 1015.4
20260902102704 78 64 8.0 17.0 0.00 0.00 0.00 84 1015.2
20260902102204 78 93 5.0 15.0 0.00 0.00 0.00 84 1015.4
20260902101936 78 96 6.0 19.0 0.00 0.00 0.00 85 1015.3
20260902101205 78 72 8.0 19.0 0.00 0.00 0.00 84 1015.3
20260902100704 78 87 9.0 17.0 0.00 0.00 0.00 84 1015.2
20260902100436 78 80 4.0 16.0 0.00 0.00 0.00 84 1015.1
20260902095705 78 82 6.0 17.0 0.00 0.00 0.00 84 1015.5
20260902095205 78 119 5.0 24.0 0.00 0.00 0.00 84 1015.2
20260902094653 78 101 10.0 24.0 0.00 0.00 0.00 83 1015.4
20260902094152 78 77 6.0 16.0 0.00 0.00 0.00 84 1015.2
20260902093652 78 91 9.0 16.0 0.00 0.00 0.00 83 1015.3
20260902093153 78 105 10.0 17.0 0.00 0.00 0.00 83 1015.6
20260902092653 78 87 8.0 17.0 0.00 0.00 0.00 83 1015.7
20260902092152 78 101 6.0 17.0 0.00 0.00 0.00 82 1015.6
20260902091654 78 101 5.0 15.0 0.00 0.00 0.00 83 1015.6
20260902091153 78 93 6.0 16.0 0.00 0.00 0.00 83 1015.8
20260902090653 78 125 10.0 16.0 0.00 0.00 0.00 83 1015.7
20260902090424 78 75 4.0 17.0 0.00 0.00 0.00 83 1015.9
20260902085653 78 109 6.0 20.0 0.00 0.00 0.00 83 1015.9
20260902085155 78 94 8.0 21.0 0.00 0.00 0.00 83 1015.8
20260902084653 78 79 10.0 21.0 0.00 0.00 0.00 82 1015.8
20260902084152 78 106 12.0 19.0 0.00 0.00 0.00 83 1016.0
20260902083652 78 118 11.0 16.0 0.00 0.00 0.00 83 1015.9
20260902083152 78 88 9.0 16.0 0.00 0.00 0.00 83 1015.7
20260902082655 78 54 4.0 17.0 0.00 0.00 0.00 84 1015.7
20260902082153 78 115 9.0 17.0 0.00 0.00 0.00 84 1015.8
20260902081653 78 59 8.0 21.0 0.00 0.00 0.00 83 1016.0
20260902081424 78 101 13.0 21.0 0.00 0.00 0.00 84 1015.9
20260902081301 78 87 7.0 19.0 0.00 0.00 0.00 84 1016.2
20260902080425 78 102 10.0 19.0 0.00 0.00 0.00 84 1015.9
20260902075653 78 52 7.0 19.0 0.00 0.00 0.00 85 1016.0
20260902075152 78 82 7.0 19.0 0.00 0.00 0.00 85 1016.2
20260902074651 78 115 9.0 16.0 0.00 0.00 0.00 86 1016.1
20260902074157 78 69 10.0 19.0 0.00 0.00 0.00 85 1016.2
20260902074151 78 77 9.0 19.0 0.00 0.00 0.00 85 1015.9
20260902073149 78 77 11.0 19.0 0.00 0.00 0.00 85 1016.2
20260902072648 78 105 9.0 16.0 0.00 0.00 0.00 84 1015.8
20260902072417 78 65 9.0 19.0 0.00 0.00 0.00 84 1015.8
20260902071645 78 51 8.0 19.0 0.00 0.00 0.00 84 1016.0
20260902071146 78 84 5.0 17.0 0.00 0.00 0.00 84 1015.9
20260902070646 78 95 8.0 16.0 0.00 0.00 0.00 84 1016.0
20260902070146 78 92 10.0 19.0 0.00 0.00 0.00 85 1016.0
20260902065645 78 114 5.0 20.0 0.00 0.00 0.00 84 1015.4
20260902065417 78 75 14.0 20.0 0.00 0.00 0.00 85 1015.7
20260902064645 78 94 5.0 17.0 0.00 0.00 0.00 86 1015.7
20260902064151 78 84 6.0 17.0 0.00 0.00 0.00 85 1015.6
20260902064145 78 116 4.0 16.0 0.00 0.00 0.00 85 1015.6
20260902063146 78 61 10.0 17.0 0.00 0.00 0.00 85 1015.5
20260902062645 78 87 7.0 15.0 0.00 0.00 0.00 85 1015.6
20260902062145 78 94 8.0 17.0 0.00 0.00 0.00 83 1015.5
20260902061915 78 66 9.0 17.0 0.00 0.00 0.00 84 1015.6
20260902061404 78 125 12.0 19.0 0.00 0.00 0.00 84 1015.6
20260902060903 78 82 6.0 19.0 0.00 0.00 0.00 83 1015.5
20260902060138 78 89 8.0 16.0 0.00 0.00 0.00 83 1015.4
20260902060132 79 87 10.0 16.0 0.00 0.00 0.00 84 1015.4
20260902055402 78 90 9.0 21.0 0.00 0.00 0.00 83 1015.4
20260902054632 78 77 11.0 21.0 0.00 0.00 0.00 83 1015.3
20260902054132 78 87 8.0 16.0 0.00 0.00 0.00 83 1015.4
20260902053902 78 65 7.0 17.0 0.00 0.00 0.00 85 1015.4
20260902053402 78 68 4.0 17.0 0.00 0.00 0.00 86 1015.2
20260902052631 78 70 5.0 20.0 0.00 0.00 0.00 86 1015.3
20260902052130 77 61 14.0 20.0 0.00 0.00 0.00 85 1015.3
20260902051901 77 62 9.0 19.0 0.00 0.00 0.00 85 1015.3
20260902051401 77 77 8.0 20.0 0.00 0.00 0.00 85 1015.1
20260902050629 76 71 6.0 20.0 0.00 0.00 0.00 85 1015.1
20260902050358 77 114 9.0 16.0 0.00 0.00 0.00 86 1015.2
20260902045627 77 91 8.0 17.0 0.00 0.00 0.00 87 1015.1
20260902045128 77 33 6.0 17.0 0.00 0.00 0.00 87 1015.2
20260902044627 77 86 8.0 23.0 0.00 0.00 0.00 86 1015.1
20260902044356 78 105 12.0 23.0 0.00 0.00 0.00 84 1015.0
20260902043626 78 58 14.0 20.0 0.00 0.00 0.00 82 1014.7
20260902043125 79 94 9.0 16.0 0.00 0.00 0.00 83 1014.8
20260902042857 79 55 5.0 16.0 0.00 0.00 0.00 82 1014.8
20260902042125 79 98 9.0 19.0 0.00 0.00 0.00 82 1014.7
20260902041624 79 78 8.0 19.0 0.00 0.00 0.00 81 1014.5
20260902041127 79 23 9.0 17.0 0.00 0.00 0.00 81 1014.8
20260902040625 79 108 7.0 15.0 0.00 0.00 0.00 80 1014.6
20260902040356 79 33 7.0 15.0 0.00 0.00 0.00 80 1014.8
20260902035626 78 90 4.0 15.0 0.00 0.00 0.00 79 1014.7
20260902035124 78 86 8.0 15.0 0.00 0.00 0.00 80 1014.8
20260902034626 78 86 7.0 17.0 0.00 0.00 0.00 80 1014.9
20260902034124 78 75 8.0 20.0 0.00 0.00 0.00 82 1015.1
20260902033624 78 73 14.0 23.0 0.00 0.00 0.00 82 1014.9
20260902033125 79 48 8.0 23.0 0.00 0.00 0.00 82 1015.1
20260902032625 79 80 13.0 21.0 0.00 0.00 0.00 79 1014.9
20260902032125 79 64 8.0 19.0 0.00 0.00 0.00 79 1015.3
20260902031625 79 76 10.0 15.0 0.00 0.00 0.00 78 1015.1
20260902031125 79 55 7.0 17.0 0.00 0.00 0.00 79 1015.2
20260902030624 79 76 10.0 17.0 0.00 0.00 0.00 80 1015.0
20260902030124 79 111 6.0 19.0 0.00 0.00 0.00 81 1015.3
20260902025856 80 88 12.0 21.0 0.00 0.00 0.00 80 1015.0
20260902025124 80 76 8.0 21.0 0.00 0.00 0.00 79 1015.0
20260902024626 81 84 11.0 21.0 0.00 0.00 0.00 79 1014.8
20260902024124 80 86 9.0 21.0 0.00 0.00 0.00 75 1014.8
20260902023613 81 110 11.0 19.0 0.00 0.00 0.00 77 1014.9
20260902023113 80 106 12.0 19.0 0.00 0.00 0.00 76 1014.9
20260902022613 81 73 10.0 19.0 0.00 0.00 0.00 78 1014.8
20260902022113 81 53 7.0 19.0 0.00 0.00 0.00 78 1014.7
20260902021613 81 79 8.0 20.0 0.00 0.00 0.00 77 1014.9
20260902021113 81 105 9.0 21.0 0.00 0.00 0.00 76 1014.9
20260902020613 81 35 9.0 21.0 0.00 0.00 0.00 78 1014.7
20260902020344 81 66 4.0 19.0 0.00 0.00 0.00 78 1014.9
20260902015613 81 75 6.0 21.0 0.00 0.00 0.00 79 1014.9
20260902015113 81 89 11.0 21.0 0.00 0.00 0.00 77 1014.9
20260902014613 81 58 9.0 19.0 0.00 0.00 0.00 77 1015.0
20260902014112 81 84 10.0 19.0 0.00 0.00 0.00 76 1015.1
20260902013843 81 108 9.0 19.0 0.00 0.00 0.00 77 1015.0
20260902013112 81 73 10.0 19.0 0.00 0.00 0.00 76 1015.0
20260902012612 82 78 14.0 21.0 0.00 0.00 0.00 76 1015.3
20260902012112 82 88 12.0 21.0 0.00 0.00 0.00 77 1015.0
20260902011611 82 64 9.0 28.0 0.00 0.00 0.00 75 1015.1
20260902011111 82 80 9.0 28.0 0.00 0.00 0.00 75 1014.9
20260902010611 82 82 9.0 20.0 0.00 0.00 0.00 76 1015.1
20260902010111 82 100 11.0 23.0 0.00 0.00 0.00 76 1015.0
20260902005612 82 84 14.0 23.0 0.00 0.00 0.00 76 1015.1
20260902005111 82 50 9.0 21.0 0.00 0.00 0.00 77 1015.2
20260902004612 82 47 8.0 21.0 0.00 0.00 0.00 75 1015.3
20260902004111 82 56 14.0 19.0 0.00 0.00 0.00 75 1015.4
20260902003612 82 54 10.0 19.0 0.00 0.00 0.00 76 1015.3
20260902003112 82 53 14.0 21.0 0.00 0.00 0.00 75 1015.2
20260902002612 82 76 11.0 24.0 0.00 0.00 0.00 75 1015.3
20260902002112 82 91 10.0 24.0 0.00 0.00 0.00 75 1015.3
20260902001600 82 49 7.0 21.0 0.00 0.00 0.00 76 1015.4
20260902001100 82 47 14.0 20.0 0.00 0.00 0.00 78 1015.4
20260902000600 82 83 12.0 19.0 0.00 0.00 0.00 78 1015.2
20260902000100 82 86 8.0 19.0 0.00 0.00 0.00 76 1015.2
20260901235600 82 63 12.0 19.0 0.00 0.00 0.00 79 1015.4
20260901235100 82 62 12.0 19.0 0.00 0.00 0.00 78 1015.5
20260901234600 83 41 10.0 19.0 0.00 0.00 0.00 77 1015.6
20260901234318 83 74 11.0 19.0 0.00 0.00 0.00 76 1015.6
20260901233549 83 82 11.0 17.0 0.00 0.00 0.00 75 1015.6
20260901233036 83 56 7.0 23.0 0.00 0.00 0.00 76 1015.6
20260901232807 83 69 12.0 23.0 0.00 0.00 0.00 74 1015.6
20260901232023 83 75 12.0 19.0 0.00 0.00 0.00 74 1015.7
20260901231524 83 53 9.0 20.0 0.00 0.00 0.00 76 1015.9
20260901231024 83 77 10.0 26.0 0.00 0.00 0.00 75 1015.8
20260901230523 83 77 12.0 26.0 0.00 0.00 0.00 73 1016.1
20260901230024 83 91 11.0 23.0 0.00 0.00 0.00 74 1015.9
20260901225524 83 76 9.0 23.0 0.00 0.00 0.00 74 1016.1
20260901225024 83 101 14.0 20.0 0.00 0.00 0.00 74 1016.1
20260901224755 83 104 9.0 21.0 0.00 0.00 0.00 74 1016.1
20260901224024 83 91 9.0 21.0 0.00 0.00 0.00 74 1016.1
20260901223524 83 69 9.0 23.0 0.00 0.00 0.00 75 1016.0
20260901223026 83 60 7.0 23.0 0.00 0.00 0.00 75 1016.1
20260901222523 83 30 8.0 21.0 0.00 0.00 0.00 74 1016.0
20260901222024 84 83 10.0 19.0 0.00 0.00 0.00 75 1016.0
20260901221755 82 102 8.0 19.0 0.00 0.00 0.00 76 1016.1
20260901221629 82 36 6.0 19.0 0.00 0.00 0.00 75 1016.2
20260901220523 83 67 11.0 23.0 0.00 0.00 0.00 76 1016.2
20260901220255 82 64 12.0 23.0 0.00 0.00 0.00 75 1016.5
20260901215518 82 83 11.0 21.0 0.00 0.00 0.00 77 1016.4
20260901215012 82 58 6.0 24.0 0.00 0.00 0.00 76 1016.4
20260901214511 83 78 7.0 24.0 0.00 0.00 0.00 76 1016.6
20260901214011 82 28 9.0 19.0 0.00 0.00 0.00 77 1016.3
20260901213512 81 57 12.0 17.0 0.00 0.00 0.00 78 1016.7
20260901213011 81 44 6.0 20.0 0.00 0.00 0.00 77 1016.5
20260901212512 82 58 9.0 20.0 0.00 0.00 0.00 78 1016.6
20260901212243 82 33 14.0 19.0 0.00 0.00 0.00 77 1016.7
20260901211511 82 95 10.0 19.0 0.00 0.00 0.00 77 1016.7
20260901211011 82 27 10.0 19.0 0.00 0.00 0.00 77 1016.7
20260901210512 82 82 9.0 19.0 0.00 0.00 0.00 76 1016.9
20260901210243 82 56 11.0 17.0 0.00 0.00 0.00 75 1016.8
20260901205518 82 76 7.0 16.0 0.00 0.00 0.00 76 1016.9
20260901205512 82 41 8.0 17.0 0.00 0.00 0.00 77 1016.5
20260901204512 82 41 9.0 17.0 0.00 0.00 0.00 76 1016.9
20260901204012 83 67 6.0 17.0 0.00 0.00 0.00 76 1016.8
20260901203518 82 106 4.0 15.0 0.00 0.00 0.00 75 1016.8
20260901203511 83 49 9.0 16.0 0.00 0.00 0.00 75 1016.9
20260901202511 82 112 8.0 15.0 0.00 0.00 0.00 76 1016.8
20260901202011 81 43 8.0 17.0 0.00 0.00 0.00 76 1017.0
20260901201742 82 110 9.0 17.0 0.00 0.00 0.00 74 1016.9
20260901201011 82 66 6.0 16.0 0.00 0.00 0.00 74 1016.8
20260901200511 82 69 8.0 16.0 0.00 0.00 0.00 75 1017.0
20260901200011 82 57 5.0 19.0 0.00 0.00 0.00 74 1017.3
20260901195511 82 89 10.0 19.0 0.00 0.00 0.00 75 1017.1
20260901195011 82 126 5.0 16.0 0.00 0.00 0.00 76 1016.9
20260901194511 81 85 6.0 16.0 0.00 0.00 0.00 76 1016.9
20260901194011 81 82 10.0 15.0 0.00 0.00 0.00 75 1016.9
20260901193511 81 118 3.0 19.0 0.00 0.00 0.00 74 1017.2
20260901193012 81 104 11.0 19.0 0.00 0.00 0.00 75 1017.1
20260901192512 81 77 10.0 15.0 0.00 0.00 0.00 75 1017.2
20260901192012 80 38 6.0 17.0 0.00 0.00 0.00 76 1017.1
20260901191512 80 82 8.0 17.0 0.00 0.00 0.00 75 1017.1
20260901191012 81 76 6.0 15.0 0.00 0.00 0.00 74 1017.1
20260901190512 81 67 7.0 19.0 0.00 0.00 0.00 76 1017.0
20260901190012 80 62 9.0 19.0 0.00 0.00 0.00 75 1017.2
20260901185514 80 89 7.0 15.0 0.00 0.00 0.00 78 1017.0
20260901185012 80 71 9.0 15.0 0.00 0.00 0.00 77 1017.1
20260901184512 80 98 9.0 16.0 0.00 0.00 0.00 77 1017.0
20260901184011 79 86 9.0 16.0 0.00 0.00 0.00 78 1017.0
20260901183518 79 97 6.0 17.0 0.00 0.00 0.00 79 1016.8
20260901183511 79 104 8.0 17.0 0.00 0.00 0.00 78 1017.1
20260901182512 79 89 11.0 16.0 0.00 0.00 0.00 79 1017.0
20260901182243 79 22 8.0 14.0 0.00 0.00 0.00 79 1017.0
20260901181512 79 79 6.0 10.0 0.00 0.00 0.00 79 1016.8
20260901181012 79 62 7.0 15.0 0.00 0.00 0.00 79 1016.8
20260901180743 79 109 9.0 15.0 0.00 0.00 0.00 78 1016.7
20260901180011 79 83 6.0 14.0 0.00 0.00 0.00 79 1016.9
20260901175511 79 110 6.0 15.0 0.00 0.00 0.00 78 1016.8
20260901175011 79 91 7.0 15.0 0.00 0.00 0.00 78 1016.8
20260901174743 79 73 6.0 14.0 0.00 0.00 0.00 79 1016.8
20260901174016 78 87 8.0 15.0 0.00 0.00 0.00 79 1016.9
20260901173743 78 56 8.0 15.0 0.00 0.00 0.00 79 1016.9
20260901173617 78 83 7.0 11.0 0.00 0.00 0.00 78 1016.9
20260901172731 78 63 5.0 11.0 0.00 0.00 0.00 78 1016.7
20260901172000 78 107 5.0 13.0 0.00 0.00 0.00 78 1016.7
20260901171501 78 95 6.0 14.0 0.00 0.00 0.00 77 1016.6
20260901171231 78 58 2.0 14.0 0.00 0.00 0.00 78 1016.5
20260901170455 78 84 3.0 10.0 0.00 0.00 0.00 78 1016.5
20260901165947 78 78 4.0 13.0 0.00 0.00 0.00 77 1016.4
20260901165447 78 100 5.0 19.0 0.00 0.00 0.00 78 1016.8
20260901164949 78 77 6.0 19.0 0.00 0.00 0.00 77 1016.4
20260901164447 77 68 5.0 11.0 0.00 0.00 0.00 77 1016.6
20260901163947 77 83 4.0 16.0 0.00 0.00 0.00 77 1016.5
20260901163448 78 78 3.0 16.0 0.00 0.00 0.00 79 1016.7
20260901162942 77 91 3.0 13.0 0.00 0.00 0.00 78 1016.6
20260901162436 77 101 2.0 13.0 0.00 0.00 0.00 78 1016.7
20260901161935 77 110 6.0 13.0 0.00 0.00 0.00 78 1016.5
20260901161435 77 98 4.0 13.0 0.00 0.00 0.00 77 1016.3
20260901160935 77 70 4.0 13.0 0.00 0.00 0.00 78 1016.5
20260901160436 77 58 4.0 11.0 0.00 0.00 0.00 78 1016.3
20260901155936 77 75 4.0 11.0 0.00 0.00 0.00 78 1016.2
20260901155424 77 100 4.0 14.0 0.00 0.00 0.00 78 1016.0
20260901154924 77 71 6.0 14.0 0.00 0.00 0.00 77 1016.3
20260901154655 78 57 4.0 14.0 0.00 0.00 0.00 77 1016.2